DW0946 Weather Reports


time (UTC)temp
F
wind
direction
speed
knots
gust
knots
rain 1hr
in
rain 24hr
in
rain mn
in
humidity
%
barometer
mb
20260505121547 61 158 0.9 7.8 0.00 0.00 0.00 73 1006.6
20260505120048 60 158 0.9 7.0 0.00 0.00 0.00 75 1006.5
20260505114546 60 146 0.0 4.3 0.00 0.00 0.00 74 1006.5
20260505113044 61 173 0.9 3.5 0.00 0.00 0.00 73 1006.6
20260505111544 60 155 0.0 5.2 0.00 0.00 0.00 76 1006.5
20260505101538 58 146 0.0 1.7 0.00 0.00 0.00 77 1006.3
20260505100036 59 181 0.0 1.7 0.00 0.00 0.00 76 1006.3
20260505094534 59 165 0.9 4.3 0.00 0.00 0.00 76 1006.1
20260505093037 60 169 0.9 4.3 0.00 0.00 0.00 75 1005.9
20260505091533 60 179 0.0 3.5 0.00 0.00 0.00 76 1005.7
20260505090031 60 158 0.9 7.8 0.00 0.00 0.00 76 1005.6
20260505084530 59 165 0.9 3.5 0.00 0.00 0.00 76 1005.5
20260505083029 60 169 0.9 3.5 0.00 0.00 0.00 76 1005.5
20260505081526 60 126 0.9 3.5 0.00 0.00 0.00 74 1005.4
20260505080028 60 187 0.9 5.2 0.00 0.00 0.00 75 1005.4
20260505074525 61 141 0.9 3.5 0.00 0.00 0.00 75 1005.3
20260505073023 61 94 0.9 3.5 0.00 0.00 0.00 74 1005.2
20260505071522 60 170 0.9 3.5 0.00 0.00 0.00 74 1005.0
20260505070021 61 172 1.7 4.3 0.00 0.00 0.00 74 1004.9
20260505064520 61 158 0.9 3.5 0.00 0.00 0.00 74 1004.9
20260505063019 61 158 1.7 4.3 0.00 0.00 0.00 74 1005.0
20260505061518 62 163 0.9 7.0 0.00 0.00 0.00 73 1005.1
20260505060015 62 153 0.9 3.5 0.00 0.00 0.00 73 1005.4
20260505054513 62 139 0.9 3.5 0.00 0.00 0.00 72 1005.6
20260505053010 63 186 1.7 6.1 0.00 0.00 0.00 72 1005.6
20260505051522 62 143 0.9 3.5 0.00 0.00 0.00 74 1005.7
20260505041601 60 194 0.0 1.7 0.00 0.00 0.00 77 1005.7
20260505040057 61 139 0.0 0.9 0.00 0.00 0.00 77 1005.8
20260505034556 60 197 0.0 1.7 0.00 0.00 0.00 78 1005.7
20260505033056 59 165 0.0 0.0 0.00 0.00 0.00 79 1005.8
20260505031558 60 165 0.0 0.0 0.00 0.00 0.00 78 1005.7
20260505030054 60 110 0.0 0.0 0.00 0.00 0.00 77 1005.6
20260505024555 60 163 0.0 0.0 0.00 0.00 0.00 75 1005.8
20260505023054 62 153 0.0 1.7 0.00 0.00 0.00 72 1005.7
20260505021553 62 264 0.0 5.2 0.00 0.00 0.00 71 1005.8
20260505014553 63 150 0.0 1.7 0.00 0.00 0.00 68 1005.5
20260505013055 63 138 0.0 1.7 0.00 0.00 0.00 67 1005.5
20260505011553 63 143 0.0 1.7 0.00 0.00 0.00 67 1005.4
20260505010108 64 160 0.0 1.7 0.00 0.00 0.00 65 1005.3
20260505004550 65 167 0.9 3.5 0.00 0.00 0.00 64 1005.3
20260505003054 65 170 0.9 3.5 0.00 0.00 0.00 63 1005.2
20260505001549 66 166 0.9 3.5 0.00 0.00 0.00 62 1005.4
20260505000048 66 145 0.9 4.3 0.00 0.00 0.00 61 1005.4
20260504234545 67 128 1.7 4.3 0.00 0.00 0.00 60 1005.5
20260504233100 68 163 0.9 5.2 0.00 0.00 0.00 59 1005.8
20260504231546 68 141 0.9 5.2 0.00 0.00 0.00 57 1005.8
20260504230052 69 127 0.9 4.3 0.00 0.00 0.00 56 1005.9
20260504224542 69 160 0.9 4.3 0.00 0.00 0.00 56 1005.9
20260504223041 70 169 2.6 6.1 0.00 0.00 0.00 57 1006.0
20260504221540 69 232 0.9 7.0 0.00 0.00 0.00 58 1006.2
20260504220040 69 264 1.7 4.3 0.00 0.00 0.00 55 1006.0
20260504214539 69 162 0.9 4.3 0.00 0.00 0.00 56 1005.8
20260504213038 70 190 2.6 4.3 0.00 0.00 0.00 54 1006.0
20260504211539 71 165 2.6 10.4 0.00 0.00 0.00 52 1006.3
20260504210042 72 135 1.7 7.8 0.00 0.00 0.00 50 1006.6
20260504204538 74 82 3.5 12.2 0.00 0.00 0.00 49 1006.6
20260504203050 74 218 1.7 7.8 0.00 0.00 0.00 49 1006.3
20260504201533 74 174 3.5 13.0 0.00 0.00 0.00 48 1006.3
20260504200032 74 264 0.9 5.2 0.00 0.00 0.00 51 1006.3
20260504194534 73 243 0.9 8.7 0.00 0.00 0.00 50 1006.3
20260504193031 74 68 2.6 10.4 0.00 0.00 0.00 47 1006.4
20260504191529 73 172 2.6 6.1 0.00 0.00 0.00 47 1006.3
20260504190028 74 156 3.5 8.7 0.00 0.00 0.00 48 1006.5
20260504184527 74 210 1.7 8.7 0.00 0.00 0.00 49 1006.7
20260504183030 74 219 1.7 7.8 0.00 0.00 0.00 48 1006.8
20260504181520 73 160 1.7 7.0 0.00 0.00 0.00 57 1006.9
20260504180016 72 83 1.7 9.6 0.00 0.00 0.00 52 1007.0
20260504174514 71 127 2.6 8.7 0.00 0.00 0.00 52 1007.2
20260504173010 70 177 3.5 9.6 0.00 0.00 0.00 53 1007.4
20260504171507 69 170 2.6 6.1 0.00 0.00 0.00 54 1007.7